FW4540 Weather Reports


Display with metric or nautical units.
time (UTC)temp
F
wind
direction
speed
MPH
gust
MPH
rain 1hr
in
rain 24hr
in
rain mn
in
humidity
%
barometer
mb
20260505003027 54 135 1.0 3.0 0.05 0.05 0.05 98 11.6
20260505002027 54 135 0.0 1.0 0.04 0.04 0.04 98 11.6
20260504235027 54 135 0.0 3.0 0.02 0.02 0.02 98 11.8
20260504233027 54 135 0.0 1.0 0.00 0.00 0.00 98 11.9
20260504232027 53 0 0.0 0.0 0.00 0.00 0.00 98 11.8
20260504230027 53 0 0.0 0.0 0.00 0.00 0.00 99 11.8
20260504224027 52 0 0.0 0.0 0.00 0.00 0.00 98 11.9
20260504222027 52 0 0.0 0.0 0.00 0.00 0.00 98 11.7
20260504221027 52 0 0.0 0.0 0.00 0.00 0.00 98 11.8
20260504220027 52 0 0.0 0.0 0.00 0.25 0.25 98 11.8
20260504215027 52 0 0.0 0.0 0.00 0.25 0.25 98 12.0
20260504214027 51 0 0.0 0.0 0.00 0.25 0.25 97 12.0
20260504213027 52 0 0.0 0.0 0.00 0.25 0.25 97 12.0
20260504211027 52 0 0.0 0.0 0.00 0.25 0.25 97 12.0
20260504210027 53 0 0.0 0.0 0.00 0.25 0.25 97 12.1
20260504205027 53 0 0.0 0.0 0.00 0.25 0.25 96 12.2
20260504204026 53 0 0.0 0.0 0.00 0.25 0.25 96 12.2
20260504203027 53 0 0.0 0.0 0.00 0.25 0.25 95 12.4
20260504202027 53 0 0.0 0.0 0.00 0.25 0.25 95 12.3
20260504201027 54 0 0.0 0.0 0.00 0.25 0.25 94 12.3
20260504200027 54 225 0.0 3.0 0.00 0.25 0.25 93 12.3
20260504195027 55 225 1.0 3.0 0.00 0.25 0.25 93 12.2
20260504194026 55 225 0.0 2.0 0.00 0.25 0.25 92 12.1
20260504193027 55 225 1.0 4.0 0.00 0.25 0.25 92 12.1
20260504192027 56 225 0.0 3.0 0.00 0.25 0.25 91 12.1
20260504191026 56 0 0.0 0.0 0.00 0.25 0.25 90 12.1
20260504190027 56 202 1.0 4.0 0.00 0.25 0.25 90 12.2
20260504184026 57 180 3.0 7.0 0.00 0.25 0.25 88 12.2
20260504182027 57 157 4.0 12.0 0.00 0.25 0.25 88 12.3
20260504180027 58 157 4.0 9.0 0.00 0.25 0.25 86 12.3
20260504174026 59 225 3.0 9.0 0.00 0.25 0.25 87 12.2
20260504173027 59 180 4.0 8.0 0.00 0.25 0.25 86 12.3
20260504172026 59 180 1.0 3.0 0.00 0.25 0.25 87 12.4
20260504171026 59 180 2.0 7.0 0.00 0.25 0.25 86 12.5
20260504151026 58 157 6.0 14.0 0.00 0.25 0.25 93 13.3
20260504141026 55 157 4.0 9.0 0.00 0.25 0.25 94 13.9
20260504081030 54 157 3.0 7.0 0.02 0.22 0.22 93 15.0
20260504045030 53 0 0.0 0.0 0.00 0.00 0.00 91 14.0
20260504044030 53 0 0.0 0.0 0.00 0.00 0.00 89 13.9
20260504043030 53 0 0.0 0.0 0.00 0.00 0.00 87 13.7
20260504042030 53 0 0.0 0.0 0.00 0.00 0.00 89 13.6
20260504035030 53 0 0.0 0.0 0.00 0.00 0.00 89 13.5
20260504034030 53 0 0.0 0.0 0.00 0.00 0.00 87 13.4
20260504033030 53 0 0.0 0.0 0.00 0.00 0.00 88 13.7
20260504032030 53 0 0.0 0.0 0.00 0.00 0.00 89 13.7
20260504031030 53 0 0.0 0.0 0.00 0.00 0.00 86 13.9
20260504030030 54 0 0.0 0.0 0.00 0.00 0.00 83 13.9
20260504025030 55 0 0.0 0.0 0.00 0.00 0.00 81 14.0
20260504023030 55 0 0.0 0.0 0.00 0.00 0.00 80 14.0
20260504022031 55 0 0.0 0.0 0.00 0.00 0.00 79 14.0
20260504021030 55 0 0.0 0.0 0.00 0.00 0.00 79 13.9
20260504020030 55 0 0.0 0.0 0.00 0.00 0.00 82 13.8
20260504014030 55 0 0.0 0.0 0.00 0.00 0.00 81 13.6
20260504013030 55 0 0.0 0.0 0.00 0.00 0.00 81 13.6
20260504012030 55 0 0.0 0.0 0.00 0.00 0.00 78 13.6
20260504011030 55 0 0.0 0.0 0.00 0.00 0.00 79 13.7
20260504010030 55 0 0.0 0.0 0.00 0.00 0.00 79 13.7
20260504005029 54 0 0.0 0.0 0.00 0.00 0.00 80 13.8
20260504004030 54 0 0.0 0.0 0.00 0.00 0.00 81 13.9